Flag for Germany Weather past 2 weeks in Minden, North Rhine-Westphalia, Germany

Now
52 °F

Broken clouds.


Feels Like: 50 °F
Forecast: 47 / 58 °F
Wind: 6 mph from South

Location: Bueckeburg

Current Time: May 29, 2015 at 9:35:47 AM

Latest Report: May 29, 2015 at 8:20 AM


Visibility: N/A

Pressure: 29.89 "Hg

Humidity: 77%

Dew point: 45 °F

Location of MindenLocation

Historic Weather in Minden — Graph

°F

Minden temperature yesterday

Maximum temperature yesterday: 66 °F (at 3:20 PM)
Minimum temperature yesterday: 50 °F (at 11:20 PM)
Average temperature yesterday: 56 °F

Past Weeks' High & Low Weather Summary

 TemperatureHumidityPressure
High68 °F (May 18, 6:20 PM)100% (May 24, 6:20 AM)30.33 "Hg (May 24, 6:20 AM)
Low37 °F (May 16, 5:20 AM)39% (May 21, 5:20 PM)29.59 "Hg (May 18, 8:20 PM)
Average53 °F69%30.04 "Hg
* Reported May 14 8:20 AM — May 29 8:20 AM, Minden, Weather by CustomWeather, © 2015

Note: Actual official high and low records may vary slightly from our data, if they occured in-between our weather recording intervals... More about our weather records

Advertising

Minden weather history for previous 24 hours

 ConditionsComfort  
Time TempWeatherWind HumidityBarometerVisibility
8:20 AM
Fri, May 29
52 °FBroken clouds.6 mph77%29.89 "HgN/A
7:20 AM48 °FBroken clouds.5 mph82%29.89 "HgN/A
6:20 AM45 °FPartly sunny.5 mph87%29.92 "HgN/A
5:20 AM45 °FPassing clouds.6 mph87%29.92 "HgN/A
4:20 AM43 °FPassing clouds.6 mph93%29.92 "HgN/A
3:20 AM41 °FPassing clouds.5 mph93%29.95 "HgN/A
2:20 AM43 °FPassing clouds.3 mph93%29.95 "HgN/A
1:20 AM45 °FPassing clouds.5 mph87%29.95 "HgN/A
12:20 AM46 °FPassing clouds.3 mph87%29.95 "HgN/A
11:20 PM
Thu, May 28
50 °FPassing clouds.6 mph82%29.95 "HgN/A
10:20 PM52 °FScattered clouds.7 mph82%29.95 "HgN/A
9:20 PM54 °FScattered clouds.6 mph88%29.92 "HgN/A
8:20 PM54 °FPartly sunny.5 mph94%29.89 "HgN/A
7:20 PM54 °FSprinkles. Broken clouds.2 mph88%29.89 "HgN/A
6:20 PM54 °FBroken clouds.5 mph88%29.89 "HgN/A
5:20 PM57 °FPartly sunny.10 mph77%29.89 "HgN/A
4:20 PM55 °FSprinkles. Partly sunny.8 mph88%29.89 "HgN/A
3:56 PM55 °FSprinkles. Partly sunny.21 mph82%29.89 "HgN/A
3:20 PM66 °FBroken clouds.14 mph49%29.86 "HgN/A
2:20 PM61 °FPartly sunny.9 mph63%29.86 "HgN/A
1:20 PM64 °FPartly sunny.17 mph49%29.86 "HgN/A
12:20 PM64 °FBroken clouds.17 mph46%29.86 "HgN/A
11:20 AM64 °FScattered clouds.18 mph49%29.86 "HgN/A
10:20 AM61 °FPartly sunny.16 mph55%29.89 "HgN/A
9:20 AM59 °FPartly sunny.13 mph55%29.89 "HgN/A
Weather by CustomWeather, © 2015

See weather overviewHow to use our weather pages